Le nostre stazioni meteo in Italia

Pubblicità
Il mio iltempo24.it
Milano/Linate, Italia (16081): Temperatura & dewpoint: 15.09.2018 05:00:00 - 21.09.2018 05:00:00 (CEST)Milano/Linate, Italia (16081): velocità del vento: 15.09.2018 05:00:00 - 21.09.2018 05:00:00 (CEST)Milano/Linate, Italia (16081): direzione del vento: 15.09.2018 05:00:00 - 21.09.2018 05:00:00 (CEST)Milano/Linate, Italia (16081): reduced air pressure: 15.09.2018 05:00:00 - 21.09.2018 05:00:00 (CEST)Milano/Linate, Italia (16081): precipitazioni: 15.09.2018 05:00:00 - 21.09.2018 05:00:00 (CEST)
Data & Tempo tt [°C] td [°C] ff [km/h] ff [kn] dd ppp [hPa] rr [mm]
21.09.2018 05:00:00 - - - - - - -
21.09.2018 04:00:00 19,3 18,9 0 0 N 1016,9 -
21.09.2018 03:00:00 19,8 18,9 0 0 N 1017,2 -
21.09.2018 02:00:00 20,2 19,1 0 0 N 1017,5 0,0
21.09.2018 01:00:00 20,9 19,3 0 0 N 1017,5 -
21.09.2018 00:00:00 21,4 20,0 0 0 N 1017,7 -
20.09.2018 23:00:00 22,0 19,9 0 0 N 1017,7 -
20.09.2018 22:00:00 23,0 19,7 0 0 N 1017,5 -
20.09.2018 21:00:00 24,2 19,8 0 0 N 1017,5 -
20.09.2018 20:00:00 25,8 19,8 0 0 N 1017,3 0,0
20.09.2018 19:00:00 28,0 20,5 0 0 N 1017,1 -
20.09.2018 18:00:00 29,0 19,9 2 1 S 1017,0 -
20.09.2018 17:00:00 29,4 20,2 2 1 SSE 1017,2 -
20.09.2018 16:00:00 29,2 20,0 2 1 E 1017,7 -
20.09.2018 15:00:00 28,8 20,5 4 2 OSO 1018,1 -
20.09.2018 14:00:00 28,5 21,0 4 2 NO 1018,8 0,0
20.09.2018 13:00:00 27,3 21,5 2 1 SSO 1019,5 -
20.09.2018 12:00:00 26,0 21,2 2 1 ENE 1020,1 -
20.09.2018 11:00:00 25,0 21,5 4 2 ESE 1020,4 -
20.09.2018 10:00:00 22,5 20,7 2 1 SE 1020,5 -
20.09.2018 09:00:00 19,8 19,7 0 0 N 1020,3 -
20.09.2018 08:00:00 18,3 18,2 0 0 N 1020,3 0,0
20.09.2018 07:00:00 18,5 18,4 0 0 N 1019,9 -
20.09.2018 06:00:00 18,7 18,6 0 0 N 1019,8 -
20.09.2018 05:00:00 18,9 18,8 0 0 N 1020,0 -
20.09.2018 04:00:00 19,2 19,1 0 0 N 1020,1 -
20.09.2018 03:00:00 19,6 19,5 0 0 N 1020,2 -
20.09.2018 02:00:00 20,1 19,6 0 0 N 1020,3 0,0
20.09.2018 01:00:00 20,5 19,6 0 0 N 1020,3 -
20.09.2018 00:00:00 20,9 19,5 0 0 N 1020,4 -
19.09.2018 23:00:00 21,5 20,1 0 0 N 1020,0 -
19.09.2018 22:00:00 22,2 20,1 0 0 N 1019,7 -
19.09.2018 21:00:00 23,3 20,0 0 0 N 1019,3 -
19.09.2018 20:00:00 24,7 19,9 0 0 N 1018,7 0,0
19.09.2018 19:00:00 26,8 20,6 2 1 SE 1018,3 -
19.09.2018 18:00:00 27,8 20,8 2 1 SE 1018,0 -
19.09.2018 17:00:00 28,2 20,9 4 2 S 1018,2 -
19.09.2018 16:00:00 27,6 21,6 2 1 SSE 1018,5 -
19.09.2018 15:00:00 26,7 21,2 4 2 SSE 1019,0 -
19.09.2018 14:00:00 27,4 21,6 4 2 N 1019,5 0,0
19.09.2018 13:00:00 26,6 21,7 4 2 SE 1020,1 -
19.09.2018 12:00:00 25,2 21,6 4 2 S 1020,5 -
19.09.2018 11:00:00 23,3 21,1 5 3 ESE 1020,7 -
19.09.2018 10:00:00 21,4 20,5 2 1 ENE 1020,8 -
19.09.2018 09:00:00 19,3 19,2 0 0 N 1020,7 -
19.09.2018 08:00:00 18,2 18,1 0 0 N 1020,2 0,0
19.09.2018 07:00:00 18,4 18,3 0 0 N 1019,5 -
19.09.2018 06:00:00 18,7 18,6 0 0 N 1019,3 -
19.09.2018 05:00:00 19,0 18,9 0 0 N 1019,3 -
19.09.2018 04:00:00 19,3 19,1 0 0 N 1019,7 -
19.09.2018 03:00:00 19,7 19,0 0 0 N 1019,7 -
19.09.2018 02:00:00 20,1 19,2 0 0 N 1019,7 0,0
19.09.2018 01:00:00 20,5 19,3 0 0 N 1019,6 -
19.09.2018 00:00:00 21,3 19,7 0 0 N 1019,7 -
18.09.2018 23:00:00 21,6 20,2 0 0 N 1019,5 -
18.09.2018 22:00:00 22,4 20,3 0 0 N 1019,3 -
18.09.2018 21:00:00 23,4 20,1 0 0 N 1018,7 -
18.09.2018 20:00:00 24,9 20,1 2 1 ESE 1017,8 0,0
18.09.2018 19:00:00 26,5 20,3 0 0 N 1017,4 -
18.09.2018 18:00:00 27,3 20,6 0 0 N 1017,7 -
18.09.2018 17:00:00 27,6 20,6 4 2 ESE 1017,9 -
18.09.2018 16:00:00 26,9 21,1 2 1 N 1017,9 -
18.09.2018 15:00:00 26,9 21,6 2 1 N 1018,9 -
18.09.2018 14:00:00 26,2 21,8 4 2 SSO 1019,5 0,0
18.09.2018 13:00:00 25,4 22,2 4 2 SO 1020,1 -
18.09.2018 12:00:00 23,4 21,8 2 1 SSO 1020,7 -
18.09.2018 11:00:00 21,8 20,7 2 1 E 1020,8 -
18.09.2018 10:00:00 21,2 20,5 2 1 ESE 1020,8 -
18.09.2018 09:00:00 20,8 20,4 2 1 SSE 1020,4 -
18.09.2018 08:00:00 20,5 20,0 2 1 E 1020,1 0,0
18.09.2018 07:00:00 20,6 19,9 0 0 N 1019,8 -
18.09.2018 06:00:00 20,6 19,9 4 2 ESE 1019,6 -
18.09.2018 05:00:00 20,4 19,5 0 0 N 1019,5 -
18.09.2018 04:00:00 20,2 19,3 0 0 N 1019,7 -
18.09.2018 03:00:00 20,2 19,0 0 0 N 1019,8 -
18.09.2018 02:00:00 20,2 19,3 0 0 N 1020,0 0,0
18.09.2018 01:00:00 20,5 19,4 0 0 N 1020,1 -
18.09.2018 00:00:00 21,2 19,6 0 0 N 1020,0 -
17.09.2018 23:00:00 22,2 20,1 0 0 N 1020,1 -
17.09.2018 22:00:00 22,3 20,2 0 0 N 1020,3 -
17.09.2018 21:00:00 23,9 20,6 0 0 N 1019,8 -
17.09.2018 20:00:00 25,3 20,5 2 1 SE 1019,2 -
17.09.2018 19:00:00 26,6 20,1 4 2 SSE 1018,6 -
17.09.2018 18:00:00 27,8 19,8 4 2 SSE 1018,4 -
17.09.2018 17:00:00 28,2 19,9 4 2 SSE 1018,8 -
17.09.2018 16:00:00 28,1 20,3 4 2 SSE 1019,3 -
17.09.2018 15:00:00 28,0 21,5 4 2 SSO 1020,1 -
17.09.2018 14:00:00 26,8 21,3 2 1 E 1021,2 0,0
17.09.2018 13:00:00 26,1 21,3 4 2 ENE 1021,6 -
17.09.2018 12:00:00 24,4 21,8 4 2 SSO 1022,1 -
17.09.2018 11:00:00 22,5 21,1 4 2 S 1022,7 -
17.09.2018 10:00:00 21,3 20,8 4 2 SE 1022,4 -
17.09.2018 09:00:00 19,4 19,3 2 1 ENE 1022,1 -
17.09.2018 08:00:00 18,4 18,3 0 0 N 1021,9 0,0
17.09.2018 07:00:00 18,7 18,6 0 0 N 1021,4 -
17.09.2018 06:00:00 19,0 18,9 0 0 N 1021,1 -
17.09.2018 05:00:00 19,2 19,1 0 0 N 1021,4 -
17.09.2018 04:00:00 19,5 19,4 0 0 N 1021,3 -
17.09.2018 03:00:00 20,1 19,6 0 0 N 1021,2 -
17.09.2018 02:00:00 20,7 19,6 0 0 N 1021,6 0,0
17.09.2018 01:00:00 20,8 19,7 0 0 N 1021,7 -
17.09.2018 00:00:00 21,4 20,2 0 0 N 1021,8 -
16.09.2018 23:00:00 21,9 20,1 0 0 N 1021,8 -
16.09.2018 22:00:00 22,3 20,0 0 0 N 1021,7 -
16.09.2018 21:00:00 23,3 19,6 0 0 N 1021,3 -
16.09.2018 20:00:00 24,5 19,9 0 0 N 1020,9 0,0
16.09.2018 19:00:00 26,1 20,6 0 0 N 1020,5 -
16.09.2018 18:00:00 27,1 20,4 0 0 N 1020,3 -
16.09.2018 17:00:00 27,4 20,4 4 2 E 1020,4 -
16.09.2018 16:00:00 27,2 21,0 4 2 ESE 1020,9 -
16.09.2018 15:00:00 26,7 20,5 4 2 E 1021,3 -
16.09.2018 14:00:00 26,1 21,0 5 3 SSE 1021,8 0,0
16.09.2018 13:00:00 25,4 21,0 8 4 E 1022,2 -
16.09.2018 12:00:00 24,7 21,2 9 5 ESE 1022,7 -
16.09.2018 11:00:00 23,7 21,7 8 4 E 1022,6 -
16.09.2018 10:00:00 22,2 21,0 5 3 E 1022,9 -
16.09.2018 09:00:00 21,5 20,3 5 3 E 1022,5 -
16.09.2018 08:00:00 20,7 20,0 5 3 ESE 1022,1 0,0
16.09.2018 07:00:00 20,4 19,5 0 0 N 1021,8 -
16.09.2018 06:00:00 20,7 19,8 0 0 N 1021,3 -
16.09.2018 05:00:00 20,1 19,4 0 0 N 1021,5 -
16.09.2018 04:00:00 21,1 19,9 0 0 N 1021,9 -
16.09.2018 03:00:00 21,5 20,4 0 0 N 1021,9 -
16.09.2018 02:00:00 22,0 20,6 2 1 NNO 1021,7 0,0
16.09.2018 01:00:00 22,5 20,7 0 0 N 1021,7 -
16.09.2018 00:00:00 22,4 20,8 0 0 N 1021,4 -
15.09.2018 23:00:00 22,6 20,8 0 0 N 1021,1 -
15.09.2018 22:00:00 22,7 20,7 0 0 N 1020,8 -
15.09.2018 21:00:00 23,4 20,7 0 0 N 1020,4 -
15.09.2018 20:00:00 25,0 21,0 0 0 N 1019,7 0,0
15.09.2018 19:00:00 26,0 21,4 4 2 E 1019,3 -
15.09.2018 18:00:00 26,9 21,6 4 2 E 1018,9 -
15.09.2018 17:00:00 26,8 21,7 2 1 E 1018,8 -
15.09.2018 16:00:00 26,7 22,1 4 2 E 1019,1 -
15.09.2018 15:00:00 26,1 21,9 4 2 ESE 1019,8 -
15.09.2018 14:00:00 25,9 22,7 5 3 ESE 1020,2 0,0
15.09.2018 13:00:00 24,3 22,7 4 2 E 1020,4 -
15.09.2018 12:00:00 23,0 21,8 4 2 E 1020,7 -
15.09.2018 11:00:00 22,1 21,2 4 2 E 1020,2 -
15.09.2018 10:00:00 21,3 20,4 4 2 E 1019,8 -
15.09.2018 09:00:00 20,6 20,5 2 1 ESE 1019,1 -
15.09.2018 08:00:00 20,0 19,9 0 0 N 1018,4 0,0
15.09.2018 07:00:00 20,1 19,7 0 0 N 1017,8 -
15.09.2018 06:00:00 20,5 20,0 0 0 N 1017,3 -
15.09.2018 05:00:00 20,6 19,4 0 0 N 1017,0 -

tt = Temperatura
td = dewpoint
ff = velocità del vento
dd = direzione del vento
ppp = reduced air pressure
rr = precipitazioni

Stazioni seguenti

WeatherPro
AMSI
MeteoEarth